TimeEEST,TemperatureF,Dew PointF,Humidity,Sea Level PressureIn,VisibilityMPH,Wind Direction,Wind SpeedMPH,Gust SpeedMPH,PrecipitationIn,Events,Conditions,WindDirDegrees,DateUTC
4:50 AM,53.6,51.8,94,30.12,6.2,Calm,Calm,-,N/A,,Partly Cloudy,0,2013-10-15 01:50:00
5:20 AM,53.6,51.8,94,30.12,6.2,Calm,Calm,-,N/A,,Partly Cloudy,0,2013-10-15 02:20:00
5:50 AM,51.8,50.0,94,30.12,5.6,Calm,Calm,-,N/A,,Partly Cloudy,0,2013-10-15 02:50:00
6:20 AM,51.8,50.0,94,30.12,5.6,Calm,Calm,-,N/A,,Partly Cloudy,0,2013-10-15 03:20:00
6:50 AM,51.8,50.0,94,30.12,5.6,Calm,Calm,-,N/A,,Partly Cloudy,0,2013-10-15 03:50:00
7:20 AM,51.8,51.8,100,30.12,3.1,Calm,Calm,-,N/A,,Partly Cloudy,0,2013-10-15 04:20:00
7:50 AM,50.0,48.2,94,30.12,3.7,Calm,Calm,-,N/A,,Mist,0,2013-10-15 04:50:00
8:20 AM,50.0,48.2,94,30.12,3.7,Calm,Calm,-,N/A,,Mist,0,2013-10-15 05:20:00
8:50 AM,53.6,51.8,94,30.12,4.3,Calm,Calm,-,N/A,,Unknown,0,2013-10-15 05:50:00
9:00 AM,54,51,88,30.15,4,Calm,Calm,,,,Mist,,2013-10-15 06:00:00
9:20 AM,57.2,51.8,82,30.12,5.0,Calm,Calm,-,N/A,,Unknown,0,2013-10-15 06:20:00
9:50 AM,62.6,55.4,77,30.12,5.0,Variable,2.3,-,N/A,,Unknown,0,2013-10-15 06:50:00
10:20 AM,64.4,55.4,73,30.12,5.0,Variable,3.5,-,N/A,,Unknown,0,2013-10-15 07:20:00
10:50 AM,64.4,57.2,77,30.12,5.6,Variable,3.5,-,N/A,,Unknown,0,2013-10-15 07:50:00
11:20 AM,66.2,57.2,73,30.12,-9999.0,ESE,5.8,-,N/A,,Clear,110,2013-10-15 08:20:00
11:50 AM,68.0,57.2,68,30.12,-9999.0,SE,4.6,-,N/A,,Clear,140,2013-10-15 08:50:00
12:20 PM,68.0,57.2,68,30.12,-9999.0,SSE,8.1,-,N/A,,Clear,160,2013-10-15 09:20:00
12:50 PM,69.8,55.4,60,30.09,-9999.0,SSE,6.9,-,N/A,,Clear,160,2013-10-15 09:50:00
1:20 PM,69.8,55.4,60,30.09,-9999.0,SSW,6.9,-,N/A,,Clear,210,2013-10-15 10:20:00
1:50 PM,69.8,55.4,60,30.09,6.2,SW,6.9,-,N/A,,Partly Cloudy,220,2013-10-15 10:50:00
2:20 PM,69.8,55.4,60,30.09,6.2,WSW,8.1,-,N/A,,Partly Cloudy,240,2013-10-15 11:20:00
2:50 PM,69.8,57.2,64,30.06,6.2,SW,8.1,-,N/A,,Scattered Clouds,230,2013-10-15 11:50:00
3:00 PM,70,58,56,30.07,6,SW,8.1,,,,Scattered Clouds,230,2013-10-15 12:00:00
3:20 PM,69.8,62.6,78,30.04,5.0,SW,8.1,-,N/A,,Scattered Clouds,230,2013-10-15 12:20:00
3:50 PM,69.8,62.6,78,30.04,5.0,SW,6.9,-,N/A,,Scattered Clouds,230,2013-10-15 12:50:00
4:20 PM,69.8,60.8,73,30.04,5.0,SW,8.1,-,N/A,,Scattered Clouds,230,2013-10-15 13:20:00
4:50 PM,68.0,60.8,78,30.01,5.0,SW,8.1,-,N/A,,Scattered Clouds,230,2013-10-15 13:50:00
5:20 PM,68.0,62.6,83,30.01,4.3,WSW,9.2,-,N/A,,Scattered Clouds,240,2013-10-15 14:20:00
5:50 PM,68.0,60.8,78,30.01,5.0,WSW,8.1,-,N/A,,Mostly Cloudy,240,2013-10-15 14:50:00
7:20 PM,66.2,59.0,78,29.98,5.6,WSW,6.9,-,N/A,,Mostly Cloudy,250,2013-10-15 16:20:00
7:50 PM,64.4,59.0,83,29.98,5.0,West,4.6,-,N/A,,Mostly Cloudy,270,2013-10-15 16:50:00
8:20 PM,64.4,60.8,88,29.98,5.0,West,4.6,-,N/A,,Mostly Cloudy,280,2013-10-15 17:20:00
8:50 PM,64.4,59.0,83,29.98,5.0,West,4.6,-,N/A,,Mostly Cloudy,270,2013-10-15 17:50:00
9:00 PM,64,60,82,30.00,5,West,4.6,,,,Mist,270,2013-10-15 18:00:00
9:20 PM,64.4,60.8,88,29.98,5.6,West,4.6,-,N/A,,Mostly Cloudy,260,2013-10-15 18:20:00
9:50 PM,62.6,59.0,88,29.98,5.0,Calm,Calm,-,N/A,,Mostly Cloudy,0,2013-10-15 18:50:00
10:20 PM,62.6,59.0,88,29.98,5.0,Calm,Calm,-,N/A,,Mostly Cloudy,0,2013-10-15 19:20:00